[[{"header":{"parameterUnit":"m.s-1","parameterCategory":1,"la1":30.2991,"la2":30.254,"lo1":-89.0895,"lo2":-89.0444,"dy":0.0017,"dx":0.0017,"nx":28,"ny":28,"refTime":"2023-11-15T09:00:00:Z","depth":0,"parameterNumber":2,"parameterNumberName":"U-component_of_WINDS"},"data":[0,0,0,0,0,0,0,0,0,0,0,0,0,0,0,0,0,0,0,0,0,0,0,0,0,0,0,0,0,0,0,0,0,0,0,0,0,0,0,0,0,0,0,0,0,0,0,0,0,0,0,0,0,0,0,0,0,0,-4.1689,-4.169,0,-4.1765,-4.1766,-4.1767,-4.1672,-4.1669,-4.1665,-4.1662,-4.1743,-4.1749,-4.1754,0,0,0,0,0,0,0,0,0,0,0,0,0,-4.1465,-4.147,-4.1689,-4.169,-4.1691,-4.1765,-4.1766,-4.1767,-4.1673,-4.1669,-4.1665,-4.1661,-4.1742,-4.1748,-4.1754,0,0,0,0,0,0,0,0,0,0,0,0,0,-4.1554,-4.1471,-4.1688,-4.1653,-4.165,-4.1764,-4.1766,-4.1767,-4.1674,-4.1669,-4.1663,-4.1659,-4.1739,-4.1747,-4.1755,-4.1909,0,0,-4.178,-4.1783,0,0,0,0,0,0,0,0,-4.1549,-4.1562,-4.1657,-4.1655,-4.1653,-4.1704,-4.1716,-4.1815,-4.1675,-4.1665,-4.1662,-4.1656,-4.1735,-4.1743,-4.1769,-4.1913,-4.1917,-4.1781,-4.1786,-4.1789,-4.1791,0,0,0,0,0,0,0,-4.1543,-4.1559,-4.1719,-4.1658,-4.1656,-4.1634,-4.1641,-4.1735,-4.1728,-4.1666,-4.1659,-4.1669,-4.1732,-4.1761,-4.177,-4.1918,-4.178,-4.1788,-4.1793,-4.1796,-4.2195,-4.22,0,0,0,0,0,0,-4.1541,-4.1554,-4.1716,-4.1721,-4.1587,-4.1642,-4.165,-4.1693,-4.1727,-4.1727,-4.1673,-4.1664,-4.175,-4.176,-4.1772,-4.1957,-4.1789,-4.1797,-4.1801,-4.2189,-4.2196,-4.2202,0,0,0,0,0,0,-4.1536,-4.1556,-4.1713,-4.1636,-4.1654,-4.1651,-4.17,-4.1697,-4.1725,-4.1733,-4.1731,-4.1704,-4.1746,-4.1761,-4.1876,-4.1958,-4.18,-4.1808,-4.2183,-4.2191,-4.2199,-4.2327,0,0,0,0,0,0,-4.153,-4.1555,-4.1613,-4.1638,-4.1659,-4.1816,-4.1705,-4.1702,-4.1739,-4.1728,-4.1761,-4.1761,-4.1743,-4.1865,-4.1884,-4.1967,-4.1814,-4.2175,-4.2186,-4.2197,-4.2315,-4.2339,-4.2359,0,0,0,0,0,-4.1523,-4.1646,-4.1616,-4.1636,-4.1731,-4.182,-4.1832,-4.1808,-4.1746,-4.1805,-4.181,-4.176,-4.1946,-4.1877,-4.1899,-4.1985,-4.217,-4.2183,-4.2196,-4.2305,-4.2334,-4.2358,0,0,0,0,0,0,-4.1631,-4.1648,-4.1616,-4.175,-4.1785,-4.1804,-4.1878,-4.1839,-4.1892,-4.188,-4.1848,-4.1856,-4.198,-4.1993,-4.1917,-4.2137,-4.2048,-4.2066,-4.2124,-4.2151,-4.2172,-4.2168,-4.1821,0,0,0,0,0,-4.1671,-4.1741,-4.1752,-4.1871,-4.1889,-4.1881,-4.1919,-4.1897,-4.1932,-4.1946,-4.1959,-4.1996,-4.2062,-4.2107,-4.2168,-4.2316,-4.2323,-4.2385,-4.2407,-4.2425,-4.2442,-4.2523,-4.2552,-4.2245,-4.2245,-4.2245,0,0,-4.1754,-4.1772,-4.1818,-4.1893,-4.1917,-4.1992,-4.1894,-4.1977,-4.2033,-4.1959,-4.2069,-4.208,-4.2119,-4.2252,-4.2311,-4.2267,-4.2527,-4.2441,-4.2455,-4.2463,-4.2539,-4.2568,-4.2594,-4.2254,-4.2252,-4.2251,0,0,-4.1943,-4.1963,-4.2064,-4.209,-4.2128,-4.2121,-4.2146,-4.2171,-4.2176,-4.2286,-4.2232,-4.2299,-4.2413,-4.2444,-4.2474,-4.2676,-4.2633,-4.2697,-4.2811,-4.2891,-4.2915,-4.2937,-4.3011,-4.3038,-4.2713,-4.2713,-4.2713,0,-4.2042,-4.2152,-4.2122,-4.221,-4.2245,-4.218,-4.2284,-4.231,-4.2367,-4.2393,-4.2342,-4.2486,-4.2507,-4.2647,-4.2697,-4.2722,-4.2751,-4.2694,-4.2914,-4.2935,-4.2955,-4.3026,-4.3053,-4.2721,-4.272,-4.2719,-4.2718,0,-4.2273,-4.235,-4.2428,-4.2483,-4.2527,-4.2622,-4.2607,-4.2656,-4.263,-4.263,-4.2743,-4.2766,-4.2832,-4.2863,-4.2839,-4.3001,-4.2973,-4.2918,-4.2829,-4.2992,-4.3058,-4.3085,-4.2732,-4.2729,-4.2727,-4.2725,0,0,-4.2535,-4.2572,-4.2602,-4.2627,-4.2663,-4.2723,-4.2816,-4.2879,-4.2923,-4.2963,-4.3042,-4.314,-4.3091,-4.3125,-4.3104,-4.3174,-4.3335,-4.3111,-4.3111,-4.3154,-4.3518,-4.3561,-4.3593,-4.3306,-4.3311,-4.3315,-4.3516,0,-4.2727,-4.2887,-4.2863,-4.3018,-4.3091,-4.303,-4.3111,-4.3143,-4.3145,-4.3208,-4.3209,-4.3281,-4.3209,-4.323,-4.3296,-4.3302,-4.3409,-4.3286,-4.3381,-4.3385,-4.3377,-4.3627,-4.3672,-4.386,-4.3541,-4.3546,-4.3549,0,-4.2973,-4.3023,-4.3186,-4.3212,-4.3241,-4.3315,-4.3372,-4.3431,-4.3467,-4.3464,-4.3503,-4.3469,-4.3563,-4.347,-4.3601,-4.3519,-4.3556,-4.3565,-4.3572,-4.3582,-4.3479,-4.3647,-4.392,-4.3949,-4.3589,-4.3585,-4.3583,0,-4.3152,-4.3259,-4.337,-4.3393,-4.3426,-4.348,-4.3496,-4.3526,-4.3566,-4.3616,-4.3643,-4.3703,-4.3738,-4.3786,-4.377,-4.3703,-4.3906,-4.3811,-4.3908,-4.3909,-4.3955,-4.3953,-4.4241,-4.3975,-4.3974,-4.3974,-4.3973,0,-4.3371,-4.3473,-4.3451,-4.3521,-4.3634,-4.3605,-4.3718,-4.3727,-4.3755,-4.3826,-4.3776,-4.3844,-4.3818,-4.3884,-4.3872,-4.3984,-4.3999,-4.4001,-4.3997,-4.4007,-4.4008,-4.4033,-4.4021,-4.3981,-4.398,-4.3978,-4.3977,0,-4.3591,-4.358,-4.3698,-4.3719,-4.3727,-4.381,-4.3829,-4.3894,-4.3892,-4.3982,-4.4002,-4.3999,-4.4075,-4.4063,-4.4147,-4.4139,-4.428,-4.4258,-4.4268,-4.4264,-4.4363,-4.4355,-4.468,-4.4723,-4.4426,-4.4429,-4.4431,0,-4.3733,-4.381,-4.384,-4.3883,-4.3903,-4.3974,-4.4015,-4.3989,-4.4034,-4.4081,-4.4142,-4.4213,-4.4269,-4.4393,-4.4399,-4.4464,-4.4446,-4.4555,-4.4456,-4.4464,-4.4451,-4.4448,-4.4457,-4.4576,-4.4579,-4.4582,-4.4584,0,-4.3987,-4.3977,-4.4038,-4.4097,-4.4147,-4.4193,-4.4234,-4.4272,-4.425,-4.4304,-4.438,-4.4424,-4.451,-4.4582,-4.4643,-4.4661,-4.4621,-4.4615,-4.4642,-4.4654,-4.4658,-4.466,-4.4325,-4.4609,-4.4606,-4.4604,-4.4603,-4.4602,-4.4174,-4.4241,-4.4272,-4.4342,-4.437,-4.4409,-4.4472,-4.4478,-4.4541,-4.4609,-4.4589,-4.4677,-4.4712,-4.4789,-4.4814,-4.4883,-4.4843,-4.4881,-4.4891,-4.4901,-4.4915,-4.4644,-4.4894,-4.4893,-4.4892,-4.4892,-4.4891,0,-4.4428,-4.4445,-4.4509,-4.4568,-4.4623,-4.4578,-4.4621,-4.4671,-4.4748,-4.4783,-4.4839,-4.4929,-4.4999,-4.501,-4.5077,-4.5131,-4.5114,-4.515,-4.5147,-4.5153,-4.4945,-4.4917,-4.5162,-4.5162,-4.5162,-4.5162,-4.5162,-4.5162,-4.4567,-4.4678,-4.4673,-4.4799,-4.4815,-4.49,-4.4929,-4.4966,-4.4994,-4.5096,-4.5153,-4.516,-4.5186,-4.5255,-4.5318,-4.532,-4.5348,-4.5392,-4.5387,-4.5194,-4.5167,-4.5141,-4.5115,-4.5397,-4.5398,-4.5588,-4.559,-4.5592]},{"header":{"parameterUnit":"m.s-1","parameterCategory":1,"la1":30.2991,"la2":30.254,"lo1":-89.0895,"lo2":-89.0444,"dy":0.0017,"dx":0.0017,"nx":28,"ny":28,"refTime":"2023-11-15T09:00:00:Z","depth":0,"parameterNumber":3,"parameterNumberName":"V-component_of_WINDS"},"data":[0,0,0,0,0,0,0,0,0,0,0,0,0,0,0,0,0,0,0,0,0,0,0,0,0,0,0,0,0,0,0,0,0,0,0,0,0,0,0,0,0,0,0,0,0,0,0,0,0,0,0,0,0,0,0,0,0,0,-4.4737,-4.4736,0,-4.4715,-4.4715,-4.4715,-4.4631,-4.4629,-4.4627,-4.4625,-4.4605,-4.4606,-4.4608,0,0,0,0,0,0,0,0,0,0,0,0,0,-4.4706,-4.4707,-4.4737,-4.4736,-4.4736,-4.4715,-4.4715,-4.4715,-4.4631,-4.4629,-4.4627,-4.4625,-4.4605,-4.4606,-4.4608,0,0,0,0,0,0,0,0,0,0,0,0,0,-4.4706,-4.4707,-4.4737,-4.4692,-4.4688,-4.4715,-4.4715,-4.4715,-4.4632,-4.4629,-4.4626,-4.4623,-4.4604,-4.4606,-4.4608,-4.4678,0,0,-4.4614,-4.4615,0,0,0,0,0,0,0,0,-4.4706,-4.4707,-4.4699,-4.4695,-4.4691,-4.4673,-4.4697,-4.4702,-4.4633,-4.4653,-4.4625,-4.4622,-4.463,-4.463,-4.4632,-4.4677,-4.4676,-4.4614,-4.4615,-4.4616,-4.4616,0,0,0,0,0,0,0,-4.4706,-4.4707,-4.4728,-4.4699,-4.4694,-4.4673,-4.467,-4.4697,-4.4658,-4.4651,-4.4645,-4.4644,-4.4627,-4.4631,-4.4631,-4.4675,-4.4614,-4.4616,-4.4617,-4.4618,-4.4775,-4.4778,0,0,0,0,0,0,-4.4712,-4.4708,-4.4729,-4.4728,-4.4691,-4.4676,-4.4673,-4.4682,-4.4658,-4.4651,-4.4646,-4.464,-4.4629,-4.4629,-4.463,-4.4709,-4.4616,-4.4618,-4.4619,-4.4772,-4.4775,-4.4779,0,0,0,0,0,0,-4.4712,-4.4715,-4.473,-4.4716,-4.4716,-4.468,-4.4691,-4.4683,-4.4686,-4.4654,-4.4647,-4.4657,-4.4626,-4.4627,-4.4666,-4.4707,-4.4619,-4.462,-4.4768,-4.4773,-4.4777,-4.4869,0,0,0,0,0,0,-4.4711,-4.4715,-4.4741,-4.4717,-4.4717,-4.4766,-4.4693,-4.4684,-4.4689,-4.4681,-4.4662,-4.4656,-4.4624,-4.4664,-4.4668,-4.4708,-4.4622,-4.4764,-4.477,-4.4776,-4.4862,-4.4876,-4.4888,0,0,0,0,0,-4.471,-4.4768,-4.4743,-4.4746,-4.4749,-4.4769,-4.4769,-4.4731,-4.4693,-4.4718,-4.4698,-4.4656,-4.4702,-4.4668,-4.4672,-4.4714,-4.4762,-4.4769,-4.4775,-4.4856,-4.4873,-4.4888,0,0,0,0,0,0,-4.4799,-4.4765,-4.4736,-4.4788,-4.4782,-4.4755,-4.4786,-4.4751,-4.4756,-4.4748,-4.4701,-4.4697,-4.4743,-4.4732,-4.4695,-4.478,-4.4725,-4.4733,-4.4785,-4.4801,-4.4814,-4.4815,-4.4623,0,0,0,0,0,-4.4825,-4.4843,-4.4812,-4.4861,-4.4859,-4.4823,-4.4831,-4.4802,-4.4794,-4.4791,-4.4773,-4.4768,-4.478,-4.479,-4.48,-4.486,-4.4854,-4.489,-4.4904,-4.4914,-4.4922,-4.4952,-4.4968,-4.4801,-4.4801,-4.4801,0,0,-4.4878,-4.4861,-4.4876,-4.4878,-4.487,-4.489,-4.4822,-4.4847,-4.4861,-4.4795,-4.483,-4.4817,-4.4807,-4.4857,-4.4877,-4.4849,-4.4967,-4.4923,-4.4932,-4.4934,-4.4961,-4.4977,-4.4991,-4.4806,-4.4805,-4.4804,0,0,-4.4985,-4.4974,-4.5013,-4.5006,-4.4994,-4.497,-4.498,-4.4957,-4.4946,-4.498,-4.4931,-4.4947,-4.4971,-4.4966,-4.4967,-4.5071,-4.5033,-4.5075,-4.5143,-4.5173,-4.5186,-4.5198,-4.5235,-4.5249,-4.5083,-4.5083,-4.5083,0,-4.5053,-4.5081,-4.5038,-4.5065,-4.5068,-4.5008,-4.5047,-4.5042,-4.5035,-4.5038,-4.5006,-4.5034,-4.5023,-4.507,-4.5096,-4.5098,-4.5107,-4.5077,-4.5188,-4.5199,-4.5209,-4.5244,-4.5258,-4.5088,-4.5088,-4.5087,-4.5087,0,-4.5164,-4.5185,-4.5217,-4.5211,-4.5217,-4.525,-4.5213,-4.5224,-4.5194,-4.5173,-4.5209,-4.5194,-4.52,-4.5208,-4.518,-4.5252,-4.5234,-4.5196,-4.514,-4.5231,-4.5262,-4.5275,-4.5096,-4.5094,-4.5092,-4.5091,0,0,-4.5328,-4.5296,-4.5309,-4.5304,-4.5286,-4.5301,-4.5332,-4.5336,-4.5347,-4.5344,-4.5368,-4.5389,-4.5353,-4.5354,-4.5324,-4.5351,-4.5433,-4.5309,-4.5308,-4.5332,-4.5511,-4.554,-4.5556,-4.5408,-4.541,-4.5412,-4.5511,0,-4.5429,-4.5479,-4.5441,-4.5497,-4.5515,-4.5458,-4.5484,-4.5476,-4.5457,-4.547,-4.5449,-4.5464,-4.5416,-4.5416,-4.5439,-4.5418,-4.5469,-4.5411,-4.543,-4.5432,-4.5435,-4.5572,-4.5603,-4.5697,-4.5523,-4.5525,-4.5527,0,-4.5555,-4.5556,-4.5614,-4.5591,-4.5597,-4.5622,-4.5622,-4.5635,-4.5625,-4.5609,-4.561,-4.5573,-4.5601,-4.5546,-4.5584,-4.5546,-4.5551,-4.5542,-4.5545,-4.5546,-4.5485,-4.5577,-4.5726,-4.5741,-4.5546,-4.5545,-4.5543,0,-4.5668,-4.5684,-4.572,-4.5719,-4.5693,-4.5711,-4.5702,-4.5688,-4.5693,-4.5694,-4.5697,-4.5702,-4.5704,-4.5709,-4.5674,-4.5637,-4.5717,-4.5659,-4.5705,-4.5706,-4.5725,-4.5724,-4.5878,-4.5729,-4.5728,-4.5728,-4.5728,0,-4.5786,-4.5823,-4.5771,-4.5793,-4.5834,-4.5789,-4.5831,-4.5815,-4.5803,-4.5822,-4.5773,-4.5792,-4.5745,-4.5759,-4.5732,-4.5768,-4.5769,-4.5758,-4.575,-4.5762,-4.5764,-4.5765,-4.5758,-4.5732,-4.5731,-4.573,-4.573,0,-4.5919,-4.5885,-4.5921,-4.5893,-4.5887,-4.5918,-4.5894,-4.5914,-4.5891,-4.5916,-4.5919,-4.5884,-4.5897,-4.5863,-4.5872,-4.5854,-4.5905,-4.5887,-4.5909,-4.5903,-4.5951,-4.5947,-4.6111,-4.6131,-4.5969,-4.5971,-4.5972,0,-4.5996,-4.6024,-4.5999,-4.6007,-4.6,-4.6014,-4.6018,-4.5976,-4.5982,-4.5972,-4.5993,-4.6002,-4.6008,-4.6032,-4.6008,-4.6014,-4.5996,-4.6053,-4.5997,-4.6008,-4.5997,-4.5996,-4.5998,-4.6065,-4.6067,-4.6069,-4.607,0,-4.6137,-4.6119,-4.6127,-4.6129,-4.6135,-4.6135,-4.6131,-4.6141,-4.6095,-4.6105,-4.6118,-4.6122,-4.613,-4.614,-4.6141,-4.6131,-4.6094,-4.6088,-4.6099,-4.6111,-4.6123,-4.6117,-4.594,-4.6084,-4.6083,-4.6082,-4.6081,-4.608,-4.6245,-4.6266,-4.6251,-4.6262,-4.6254,-4.6251,-4.6268,-4.6247,-4.6257,-4.6259,-4.6234,-4.6252,-4.624,-4.6237,-4.6231,-4.6245,-4.6219,-4.6235,-4.6239,-4.6244,-4.6252,-4.612,-4.6245,-4.6245,-4.6244,-4.6244,-4.6244,0,-4.6383,-4.637,-4.638,-4.6376,-4.6384,-4.6346,-4.6339,-4.6349,-4.6365,-4.6357,-4.6363,-4.6377,-4.6386,-4.6362,-4.6368,-4.6384,-4.6366,-4.6387,-4.6385,-4.6384,-4.6275,-4.6265,-4.64,-4.64,-4.64,-4.64,-4.64,-4.64,-4.6456,-4.649,-4.647,-4.6499,-4.6486,-4.6503,-4.6502,-4.65,-4.6492,-4.6511,-4.6517,-4.6501,-4.6487,-4.649,-4.6497,-4.649,-4.6494,-4.6521,-4.6508,-4.6407,-4.6391,-4.6377,-4.6367,-4.6522,-4.6522,-4.6615,-4.6616,-4.6617]}]]